TimeEST,TemperatureF,Dew PointF,Humidity,Sea Level PressureIn,VisibilityMPH,Wind Direction,Wind SpeedMPH,Gust SpeedMPH,PrecipitationIn,Events,Conditions,WindDirDegrees,DateUTC
12:15 AM,57.2,53.6,88,29.65,10.0,South,6.9,-,N/A,,Overcast,190,2012-12-18 05:15:00
12:35 AM,57.2,53.6,88,29.64,10.0,South,5.8,-,N/A,,Scattered Clouds,180,2012-12-18 05:35:00
12:55 AM,57.2,53.6,88,29.64,10.0,South,5.8,-,N/A,,Mostly Cloudy,190,2012-12-18 05:55:00
1:15 AM,55.4,53.6,94,29.64,10.0,South,4.6,-,N/A,,Mostly Cloudy,190,2012-12-18 06:15:00
1:35 AM,55.4,53.6,94,29.65,-9999.0,South,4.6,-,N/A,,Unknown,190,2012-12-18 06:35:00
1:55 AM,55.4,53.6,94,29.66,10.0,SSW,3.5,-,N/A,,Mostly Cloudy,210,2012-12-18 06:55:00
2:15 AM,55.4,53.6,94,29.66,10.0,SSW,3.5,-,N/A,,Overcast,200,2012-12-18 07:15:00
2:35 AM,55.4,53.6,94,29.66,-9999.0,SSE,4.6,-,N/A,,Unknown,160,2012-12-18 07:35:00
2:55 AM,53.6,53.6,100,29.66,10.0,South,3.5,-,N/A,,Scattered Clouds,190,2012-12-18 07:55:00
3:15 AM,53.6,53.6,100,29.65,10.0,Calm,Calm,-,N/A,,Clear,0,2012-12-18 08:15:00
3:35 AM,53.6,51.8,94,29.65,10.0,Calm,Calm,-,N/A,,Clear,0,2012-12-18 08:35:00
3:55 AM,53.6,51.8,94,29.66,10.0,Calm,Calm,-,N/A,,Clear,0,2012-12-18 08:55:00
4:15 AM,51.8,51.8,100,29.64,-9999.0,Calm,Calm,-,N/A,,Unknown,0,2012-12-18 09:15:00
4:35 AM,51.8,51.8,100,29.64,10.0,Calm,Calm,-,N/A,,Clear,0,2012-12-18 09:35:00
4:55 AM,46.4,46.4,100,29.64,0.5,Calm,Calm,-,N/A,Fog,Fog,0,2012-12-18 09:55:00
5:15 AM,46.4,46.4,100,29.64,0.2,Calm,Calm,-,N/A,Fog,Fog,0,2012-12-18 10:15:00
5:35 AM,46.4,46.4,100,29.64,0.2,Calm,Calm,-,N/A,Fog,Fog,0,2012-12-18 10:35:00
5:55 AM,44.6,44.6,100,29.64,0.2,Calm,Calm,-,N/A,Fog,Fog,0,2012-12-18 10:55:00
6:15 AM,44.6,44.6,100,29.66,0.2,Calm,Calm,-,N/A,Fog,Fog,0,2012-12-18 11:15:00
6:35 AM,48.2,48.2,100,29.66,0.5,Calm,Calm,-,N/A,Fog,Fog,0,2012-12-18 11:35:00
6:55 AM,50.0,50.0,100,29.68,2.5,South,4.6,-,N/A,,Clear,180,2012-12-18 11:55:00
7:15 AM,50.0,50.0,100,29.68,10.0,South,4.6,-,N/A,,Clear,170,2012-12-18 12:15:00
7:35 AM,51.8,51.8,100,29.68,10.0,South,3.5,-,N/A,,Clear,190,2012-12-18 12:35:00
7:55 AM,51.8,51.8,100,29.68,10.0,Calm,Calm,-,N/A,,Scattered Clouds,0,2012-12-18 12:55:00
8:15 AM,51.8,51.8,100,29.69,10.0,South,3.5,-,N/A,,Mostly Cloudy,180,2012-12-18 13:15:00
8:35 AM,51.8,51.8,100,29.69,10.0,Calm,Calm,-,N/A,,Overcast,0,2012-12-18 13:35:00
8:55 AM,53.6,53.6,100,29.69,10.0,South,4.6,-,N/A,,Overcast,190,2012-12-18 13:55:00
9:15 AM,53.6,53.6,100,29.69,10.0,SSW,3.5,-,N/A,,Mostly Cloudy,210,2012-12-18 14:15:00
9:35 AM,53.6,53.6,100,29.69,10.0,SW,6.9,-,N/A,,Scattered Clouds,220,2012-12-18 14:35:00
9:55 AM,55.4,53.6,94,29.69,10.0,SW,9.2,-,N/A,,Mostly Cloudy,220,2012-12-18 14:55:00
10:15 AM,57.2,51.8,82,29.69,-9999.0,SW,9.2,-,N/A,,Overcast,230,2012-12-18 15:15:00
10:35 AM,59.0,51.8,77,29.69,10.0,WSW,8.1,-,N/A,,Overcast,240,2012-12-18 15:35:00
10:55 AM,59.0,51.8,77,29.68,10.0,WSW,10.4,-,N/A,,Overcast,250,2012-12-18 15:55:00
11:15 AM,59.0,50.0,72,29.68,10.0,SW,8.1,-,N/A,,Overcast,230,2012-12-18 16:15:00
11:35 AM,59.0,50.0,72,29.68,10.0,WSW,9.2,16.1,N/A,,Overcast,240,2012-12-18 16:35:00
11:55 AM,59.0,50.0,72,29.68,10.0,SW,9.2,-,N/A,,Overcast,230,2012-12-18 16:55:00
12:15 PM,59.0,48.2,67,29.67,10.0,SW,10.4,-,N/A,,Overcast,230,2012-12-18 17:15:00
12:35 PM,57.2,50.0,77,29.66,10.0,WSW,4.6,-,N/A,,Overcast,240,2012-12-18 17:35:00
12:55 PM,57.2,48.2,72,29.66,10.0,WSW,6.9,-,N/A,,Overcast,250,2012-12-18 17:55:00
1:15 PM,57.2,46.4,67,29.66,10.0,WSW,6.9,-,N/A,,Overcast,250,2012-12-18 18:15:00
1:35 PM,60.8,44.6,55,29.66,10.0,West,11.5,16.1,N/A,,Scattered Clouds,260,2012-12-18 18:35:00
1:55 PM,59.0,42.8,55,29.67,-9999.0,WSW,10.4,19.6,N/A,,Mostly Cloudy,250,2012-12-18 18:55:00
2:15 PM,59.0,42.8,55,29.67,10.0,West,8.1,20.7,N/A,,Mostly Cloudy,270,2012-12-18 19:15:00
2:35 PM,60.8,41.0,48,29.68,10.0,West,9.2,20.7,N/A,,Scattered Clouds,260,2012-12-18 19:35:00
2:55 PM,60.8,41.0,48,29.68,-9999.0,West,12.7,19.6,N/A,,Scattered Clouds,270,2012-12-18 19:55:00
3:15 PM,59.0,39.2,48,29.68,10.0,West,10.4,20.7,N/A,,Clear,270,2012-12-18 20:15:00
3:35 PM,59.0,37.4,45,29.70,10.0,WSW,15.0,23.0,N/A,,Clear,250,2012-12-18 20:35:00
3:55 PM,59.0,35.6,42,29.71,10.0,West,13.8,21.9,N/A,,Clear,260,2012-12-18 20:55:00
4:15 PM,57.2,37.4,48,29.72,10.0,West,10.4,19.6,N/A,,Clear,270,2012-12-18 21:15:00
4:35 PM,55.4,37.4,51,29.73,10.0,West,5.8,-,N/A,,Clear,260,2012-12-18 21:35:00
4:55 PM,53.6,37.4,54,29.74,10.0,WSW,4.6,-,N/A,,Clear,250,2012-12-18 21:55:00
5:15 PM,53.6,37.4,54,29.75,10.0,West,6.9,-,N/A,,Clear,260,2012-12-18 22:15:00
5:35 PM,53.6,35.6,51,29.76,10.0,WSW,8.1,-,N/A,,Clear,250,2012-12-18 22:35:00
5:55 PM,53.6,35.6,51,29.77,10.0,WSW,10.4,16.1,N/A,,Clear,240,2012-12-18 22:55:00
6:15 PM,51.8,35.6,54,29.78,10.0,West,8.1,-,N/A,,Clear,260,2012-12-18 23:15:00
6:35 PM,51.8,35.6,54,29.79,-9999.0,WSW,8.1,-,N/A,,Clear,250,2012-12-18 23:35:00
6:55 PM,50.0,35.6,58,29.81,10.0,West,6.9,-,N/A,,Clear,260,2012-12-18 23:55:00
7:35 PM,50.0,35.6,58,29.84,10.0,WSW,5.8,-,N/A,,Clear,240,2012-12-19 00:35:00
7:55 PM,48.2,35.6,62,29.85,10.0,WSW,5.8,-,N/A,,Clear,250,2012-12-19 00:55:00
8:15 PM,48.2,35.6,62,29.85,10.0,WSW,5.8,-,N/A,,Clear,250,2012-12-19 01:15:00
8:35 PM,46.4,33.8,62,29.86,-9999.0,WSW,5.8,-,N/A,,Clear,240,2012-12-19 01:35:00
8:55 PM,46.4,33.8,62,29.86,10.0,WSW,8.1,-,N/A,,Clear,240,2012-12-19 01:55:00
9:15 PM,46.4,33.8,62,29.88,10.0,WSW,9.2,-,N/A,,Clear,240,2012-12-19 02:15:00
9:35 PM,46.4,33.8,62,29.89,10.0,WSW,11.5,16.1,N/A,,Clear,240,2012-12-19 02:35:00
9:55 PM,46.4,33.8,62,29.89,10.0,West,6.9,-,N/A,,Clear,270,2012-12-19 02:55:00
10:15 PM,44.6,33.8,66,29.89,10.0,West,3.5,-,N/A,,Clear,270,2012-12-19 03:15:00
10:35 PM,44.6,33.8,66,29.89,10.0,SW,4.6,-,N/A,,Clear,220,2012-12-19 03:35:00
10:55 PM,42.8,33.8,70,29.89,10.0,WSW,4.6,-,N/A,,Clear,250,2012-12-19 03:55:00
11:15 PM,41.0,33.8,76,29.89,10.0,SW,4.6,-,N/A,,Clear,230,2012-12-19 04:15:00
11:35 PM,41.0,33.8,76,29.87,10.0,Calm,Calm,-,N/A,,Clear,0,2012-12-19 04:35:00
11:55 PM,39.2,33.8,81,29.88,10.0,SSW,4.6,-,N/A,,Clear,200,2012-12-19 04:55:00